• Em Portugal
  • Lista de países
  • Para 7 dias
  • Temperatura da água
  • Mapas de satélite
  • Mapa do tempo
  • Widgets de tempo
  • user-avatar
    Iniciar Sessão

    Previsão horária em Georgetown

    Hoje, 23 Agosto, Quarta-feira

    Tempo Temperatura Precipitação Vento Pressão Humidade
    00:00 +30°C° 0 mm 1 m/s 734 mmHg 63%
    01:00 +30°C° 0 mm 1 m/s 734 mmHg 64%
    02:00 +29°C° 0 mm 1 m/s 734 mmHg 64%
    03:00 +29°C° 0 mm 1 m/s 734 mmHg 63%
    04:00 +29°C° 0 mm 1 m/s 733 mmHg 63%
    05:00 +29°C° 0 mm 1 m/s 734 mmHg 62%
    06:00 +30°C° 0 mm 2 m/s 734 mmHg 61%
    07:00 +30°C° 0 mm 3 m/s 734 mmHg 61%
    08:00 +30°C° 0 mm 3 m/s 734 mmHg 60%
    09:00 +32°C° 0 mm 4 m/s 734 mmHg 59%
    10:00 +32°C° 0 mm 5 m/s 735 mmHg 59%
    11:00 +33°C° 0 mm 5 m/s 734 mmHg 57%
    12:00 +34°C° 0 mm 4 m/s 734 mmHg 56%
    13:00 +34°C° 0 mm 4 m/s 733 mmHg 54%
    14:00 +35°C° 0 mm 4 m/s 733 mmHg 53%
    15:00 +35°C° 0 mm 4 m/s 732 mmHg 53%
    16:00 +35°C° 0 mm 3 m/s 732 mmHg 52%
    17:00 +34°C° 0,1 mm 3 m/s 732 mmHg 53%
    18:00 +34°C° 0,1 mm 3 m/s 732 mmHg 54%
    19:00 +33°C° 0,1 mm 3 m/s 732 mmHg 55%
    20:00 +33°C° 0,3 mm 3 m/s 732 mmHg 55%
    21:00 +33°C° 0,3 mm 3 m/s 733 mmHg 54%
    22:00 +32°C° 0,3 mm 2 m/s 733 mmHg 54%
    23:00 +33°C° 0,5 mm 3 m/s 733 mmHg 54%

    Amanhã, 24 Agosto, Quinta-feira

    Tempo Temperatura Precipitação Vento Pressão Humidade
    00:00 +33°C° 0,5 mm 4 m/s 732 mmHg 55%
    01:00 +32°C° 0,5 mm 4 m/s 732 mmHg 55%
    02:00 +32°C° 0,1 mm 5 m/s 732 mmHg 56%
    03:00 +32°C° 0,1 mm 5 m/s 731 mmHg 57%
    04:00 +32°C° 0,1 mm 5 m/s 731 mmHg 58%
    05:00 +32°C° 0 mm 6 m/s 731 mmHg 61%
    06:00 +32°C° 0 mm 6 m/s 731 mmHg 64%
    07:00 +30°C° 0 mm 6 m/s 732 mmHg 68%
    08:00 +33°C° 0 mm 6 m/s 732 mmHg 63%
    09:00 +34°C° 0 mm 6 m/s 732 mmHg 57%
    10:00 +35°C° 0 mm 6 m/s 732 mmHg 52%
    11:00 +36°C° 0 mm 6 m/s 732 mmHg 49%
    12:00 +37°C° 0 mm 5 m/s 731 mmHg 46%
    13:00 +38°C° 0 mm 4 m/s 731 mmHg 42%
    14:00 +38°C° 0 mm 4 m/s 730 mmHg 44%
    15:00 +37°C° 0 mm 5 m/s 729 mmHg 45%
    16:00 +37°C° 0 mm 5 m/s 729 mmHg 46%
    17:00 +36°C° 0 mm 5 m/s 729 mmHg 48%
    18:00 +36°C° 0 mm 4 m/s 729 mmHg 49%
    19:00 +35°C° 0 mm 4 m/s 729 mmHg 51%
    20:00 +35°C° 0 mm 4 m/s 729 mmHg 49%
    21:00 +35°C° 0 mm 4 m/s 730 mmHg 48%
    22:00 +35°C° 0 mm 4 m/s 730 mmHg 47%
    23:00 +35°C° 0 mm 4 m/s 730 mmHg 47%

    Depois de amanhã, 25 Agosto, Sexta-feira

    Tempo Temperatura Precipitação Vento Pressão Humidade
    00:00 +34°C° 0 mm 5 m/s 730 mmHg 47%
    01:00 +34°C° 0 mm 5 m/s 730 mmHg 48%
    02:00 +33°C° 0 mm 6 m/s 730 mmHg 52%
    03:00 +33°C° 0 mm 6 m/s 730 mmHg 57%
    04:00 +32°C° 0 mm 6 m/s 730 mmHg 62%
    05:00 +32°C° 0 mm 7 m/s 730 mmHg 64%
    06:00 +32°C° 0 mm 8 m/s 731 mmHg 66%
    07:00 +32°C° 0 mm 8 m/s 731 mmHg 67%
    08:00 +32°C° 0 mm 9 m/s 731 mmHg 67%
    09:00 +32°C° 0 mm 9 m/s 732 mmHg 67%
    10:00 +33°C° 0 mm 9 m/s 732 mmHg 67%
    11:00 +33°C° 0 mm 9 m/s 732 mmHg 65%
    12:00 +34°C° 0 mm 8 m/s 731 mmHg 63%
    13:00 +34°C° 0 mm 8 m/s 731 mmHg 61%
    14:00 +34°C° 0 mm 7 m/s 730 mmHg 60%
    15:00 +34°C° 0 mm 7 m/s 730 mmHg 60%
    16:00 +35°C° 0 mm 6 m/s 729 mmHg 60%
    17:00 +34°C° 0 mm 6 m/s 729 mmHg 61%
    18:00 +34°C° 0 mm 6 m/s 730 mmHg 63%
    19:00 +34°C° 0 mm 5 m/s 730 mmHg 65%
    20:00 +33°C° 0 mm 5 m/s 731 mmHg 66%
    21:00 +33°C° 0 mm 6 m/s 731 mmHg 67%
    22:00 +33°C° 0 mm 6 m/s 731 mmHg 68%
    23:00 +33°C° 0 mm 6 m/s 731 mmHg 68%

    26 Agosto, Sábado

    Tempo Temperatura Precipitação Vento Pressão Humidade
    00:00 +32°C° 0 mm 7 m/s 731 mmHg 69%
    01:00 +32°C° 0 mm 7 m/s 731 mmHg 69%
    02:00 +32°C° 0 mm 7 m/s 731 mmHg 70%
    03:00 +32°C° 0 mm 7 m/s 731 mmHg 71%
    04:00 +30°C° 0 mm 7 m/s 730 mmHg 72%
    05:00 +30°C° 0 mm 7 m/s 731 mmHg 73%
    06:00 +30°C° 0 mm 7 m/s 732 mmHg 73%
    07:00 +30°C° 0 mm 7 m/s 732 mmHg 73%
    08:00 +32°C° 0 mm 7 m/s 733 mmHg 71%
    09:00 +32°C° 0 mm 7 m/s 734 mmHg 70%
    10:00 +32°C° 0 mm 7 m/s 734 mmHg 68%
    11:00 +33°C° 0 mm 7 m/s 734 mmHg 65%
    12:00 +33°C° 0 mm 6 m/s 733 mmHg 63%
    13:00 +34°C° 0 mm 6 m/s 732 mmHg 61%
    14:00 +34°C° 0 mm 6 m/s 732 mmHg 59%
    15:00 +34°C° 0 mm 6 m/s 731 mmHg 58%
    16:00 +34°C° 0 mm 6 m/s 731 mmHg 56%
    17:00 +34°C° 0 mm 5 m/s 731 mmHg 57%
    18:00 +34°C° 0 mm 5 m/s 731 mmHg 58%
    19:00 +34°C° 0 mm 5 m/s 732 mmHg 59%
    20:00 +34°C° 0 mm 5 m/s 732 mmHg 61%
    21:00 +33°C° 0 mm 5 m/s 732 mmHg 62%
    22:00 +33°C° 0 mm 5 m/s 732 mmHg 63%
    23:00 +33°C° 0 mm 5 m/s 732 mmHg 65%

    27 Agosto, Domingo

    Tempo Temperatura Precipitação Vento Pressão Humidade
    00:00 +33°C° 0 mm 5 m/s 732 mmHg 66%
    01:00 +32°C° 0 mm 5 m/s 731 mmHg 67%
    02:00 +32°C° 0 mm 5 m/s 732 mmHg 68%
    03:00 +32°C° 0 mm 5 m/s 732 mmHg 69%
    04:00 +32°C° 0 mm 5 m/s 732 mmHg 70%
    05:00 +32°C° 0,1 mm 5 m/s 732 mmHg 69%
    06:00 +32°C° 0,1 mm 6 m/s 733 mmHg 69%
    07:00 +30°C° 0,1 mm 6 m/s 733 mmHg 68%
    08:00 +32°C° 0 mm 6 m/s 733 mmHg 65%
    09:00 +33°C° 0 mm 6 m/s 733 mmHg 62%
    10:00 +33°C° 0 mm 6 m/s 734 mmHg 59%
    11:00 +34°C° 0 mm 6 m/s 733 mmHg 58%
    12:00 +34°C° 0 mm 6 m/s 732 mmHg 58%
    13:00 +35°C° 0 mm 6 m/s 732 mmHg 57%
    14:00 +35°C° 0 mm 5 m/s 731 mmHg 56%
    15:00 +35°C° 0 mm 5 m/s 731 mmHg 55%
    16:00 +35°C° 0 mm 4 m/s 731 mmHg 53%
    17:00 +35°C° 0 mm 3 m/s 731 mmHg 54%
    18:00 +35°C° 0 mm 3 m/s 731 mmHg 54%
    19:00 +34°C° 0 mm 3 m/s 731 mmHg 54%
    20:00 +34°C° 0 mm 3 m/s 732 mmHg 54%
    21:00 +34°C° 0 mm 3 m/s 732 mmHg 54%
    22:00 +34°C° 0 mm 3 m/s 732 mmHg 53%
    23:00 +34°C° 0 mm 4 m/s 732 mmHg 56%

    28 Agosto, Segunda-feira

    Tempo Temperatura Precipitação Vento Pressão Humidade
    00:00 +33°C° 0 mm 5 m/s 731 mmHg 59%
    01:00 +33°C° 0 mm 6 m/s 731 mmHg 61%
    02:00 +33°C° 0 mm 7 m/s 731 mmHg 64%
    03:00 +32°C° 0 mm 8 m/s 731 mmHg 66%
    04:00 +32°C° 0 mm 9 m/s 731 mmHg 69%
    05:00 +32°C° 0 mm 9 m/s 732 mmHg 70%
    06:00 +31°C° 0 mm 9 m/s 732 mmHg 72%
    07:00 +31°C° 0 mm 9 m/s 732 mmHg 73%
    08:00 +31°C° 0 mm 9 m/s 733 mmHg 72%
    09:00 +31°C° 0 mm 9 m/s 733 mmHg 71%
    10:00 +32°C° 0 mm 9 m/s 733 mmHg 70%
    11:00 +32°C° 0 mm 9 m/s 733 mmHg 68%
    12:00 +33°C° 0 mm 9 m/s 732 mmHg 66%
    13:00 +33°C° 0 mm 9 m/s 732 mmHg 64%
    14:00 +33°C° 0 mm 8 m/s 731 mmHg 63%
    15:00 +34°C° 0 mm 7 m/s 731 mmHg 62%
    16:00 +34°C° 0 mm 6 m/s 730 mmHg 61%
    17:00 +34°C° 0 mm 6 m/s 731 mmHg 63%
    18:00 +33°C° 0 mm 6 m/s 731 mmHg 66%
    19:00 +32°C° 0 mm 6 m/s 731 mmHg 69%
    20:00 +32°C° 0,5 mm 7 m/s 731 mmHg 70%
    21:00 +32°C° 0,5 mm 7 m/s 732 mmHg 71%
    22:00 +32°C° 0,5 mm 8 m/s 732 mmHg 71%
    23:00 +30°C° 0,3 mm 7 m/s 732 mmHg 71%
    Mostrar mais